Miscellaneous Local Product
Issued by NWS North Platte, NE

Home | Current Version | Previous Version | Text Only | Print | Product List | Glossary On
Versions: 1 2 3 4 5 6 7 8 9 10 11 12 13 14 15 16 17 18 19 20 21 22 23 24 25 26 27 28 29 30 31 32 33 34 35 36 37 38 39 40 41 42 43 44 45 46 47 48 49 50
000
AXUS43 KLBF 251210
MISLBF


WESTERN AND NORTH CENTRAL NEBRASKA HOURLY WEATHER ROUNDUP
NATIONAL WEATHER SERVICE NORTH PLATTE NE
700 AM CDT SAT APR 25 2015

***STATIONS NOT REPORTING VARIABLES SUCH AS SKY/WEATHER OR
PRESSURE ARE PROVIDED BY THE NEBRASKA DEPARTMENT OF
ROADS...RAWS...AND APRS NETWORKS...AND ARE NOT UNDER
NATIONAL WEATHER SERVICE QUALITY CONTROL***

...OBSERVATIONS IN AND NEAR THE EASTERN PANHANDLE OF NEBRASKA...

CITY           SKY/WX    TMP DP  RH WIND       PRES   REMARKS
PINE RIDGE     FOG       38  37  97 E6        29.68R VSB 1/4 WCI  33
CHADRON        CLEAR     36  35  96 CALM      29.68R
ALLIANCE       CLEAR     37  36  96 NW5       29.67R WCI  33
SIDNEY         CLEAR     39  37  92 W9        29.69R WCI  33
$$

...OBSERVATIONS IN NORTH CENTRAL NEBRASKA...

CITY           SKY/WX    TMP DP  RH WIND       PRES   REMARKS
VALENTINE      CLOUDY    48  46  93 N12       29.63R
THEDFORD       PTCLDY    48  46  95 NW6       29.62R
AINSWORTH      CLOUDY    50  47  91 NE7       29.63R
O`NEILL        CLOUDY    52  51  97 NE7       29.62R FOG
ORD            CLOUDY    54  50  86 NE9       29.58R
BROKEN BOW     MOCLDY    51  48  89 N9        29.59R
$$

...OBSERVATIONS IN SOUTHWEST NEBRASKA AND FAR NORTHEAST COLORADO...

CITY           SKY/WX    TMP DP  RH WIND       PRES   REMARKS
WRAY           FAIR      43  40  90 W7        29.66R
HOLYOKE        FAIR      46  41  81 NW10      29.66R
IMPERIAL       CLEAR     46  41  82 NW14      29.63S
OGALLALA       PTCLDY    45  43  94 W7        29.64R
MCCOOK         PTCLDY    49  45  86 NW9       29.59R
LEXINGTON      MOCLDY    51  49  90 NW13      29.56S
$$

...NORTH PLATTE AREA...

CITY           SKY/WX    TMP DP  RH WIND       PRES   REMARKS
$$

...SOME WEATHER OBSERVATIONS FROM AROUND THE REGION...

CITY           SKY/WX    TMP DP  RH WIND       PRES   REMARKS
DENVER         PTCLDY    42  26  53 S9        29.73R
LARAMIE        PTCLDY    38  26  62 S5        29.78R WCI  34
CHEYENNE       MOCLDY    40  29  64 W3        29.74S
SCOTTSBLUFF    CLEAR     40  50 100 MISG      29.69R
RAPID CITY     PTCLDY    40  37  89 N3        29.67R
PIERRE         CLOUDY    46  45  96 NE17G23   29.67R FOG
WINNER         FOG       51  49  92 NE10      29.64R VSB 3/4
SIOUX FALLS    CLOUDY    45  42  89 E17       29.66R
OMAHA          LGT RAIN  51  49  92 VRB7G20   29.50R FOG
GRAND ISLAND   CLOUDY    53  52  96 NE10      29.52R
KANSAS CITY    LGT RAIN  56  55  97 NW12      29.42R
WICHITA        MOCLDY    56  52  86 W13       29.51R
HAYS           PTCLDY    52  43  71 NW8       29.55R
LIBERAL        CLEAR     45  37  76 W6        29.69R
GOODLAND       PTCLDY    45  40  82 W10       29.65R
$$



USA.gov is the U.S. government's official web portal to all federal, state and local government web resources and services.